Regional Weather Roundup
Issued by NWS

Home | Current Version | Previous Version | Graphics & Text | Print | Product List | Glossary On
Versions: 1 2 3 4 5 6 7 8 9 10 11 12 13 14 15 16 17 18 19 20 21 22 23 24 25 26 27 28 29 30 31 32 33 34 35 36 37 38 39 40 41 42 43 44 45 46 47 48 49 50
000
ASUS43 KDMX 191607
RWRIA

WEATHER ROUNDUP FOR IOWA
NATIONAL WEATHER SERVICE DES MOINES IA
1100 AM CDT FRI SEP 19 2014

NOTE: "FAIR" INDICATES FEW OR NO CLOUDS BELOW 12,000 FEET WITH NO
SIGNIFICANT WEATHER AND/OR OBSTRUCTIONS TO VISIBILITY.

* - THESE STATIONS ARE NOT NWS STATIONS...THUS NOT UNDER NWS
QUALITY CONTROL.  THEY ALSO DO NOT REPORT WEATHER SUCH
AS PRECIPITATION OR FOG.

IAZ001>003-012>014-020>022-031>034-043>046-191700-
   NORTHWEST IOWA

CITY           SKY/WX    TMP DP  RH WIND       PRES   REMARKS
CARROLL *      SUNNY     72  63  73 S16G25    29.91F
CHEROKEE *     CLOUDY    70  64  83 S25G32    29.85F
DENISON *      CLOUDY    68  64  88 S16G25    29.89S
LE MARS *      CLOUDY    70  64  83 S17G25    29.82F
ORANGE CITY *  CLOUDY    68  63  83 S21G32    29.81F
SHELDON *      CLOUDY    66  63  88 S18G25    29.80F
SIOUX CITY     MOSUNNY   73  64  73 S14G25    29.85S
SPENCER        CLOUDY    69  62  78 S17       29.84F
STORM LAKE *   MOSUNNY   72  66  83 S17G31    29.86F
$$

IAZ055>058-069>071-079>083-090>094-191700-
   SOUTHWEST IOWA

CITY           SKY/WX    TMP DP  RH WIND       PRES   REMARKS
ATLANTIC *     CLOUDY    68  63  83 S17       29.94F
AUDUBON *      SUNNY     70  61  73 S14       29.94F
CLARINDA *     CLOUDY    66  63  88 S12       29.99F
COUNCIL BLFS * CLOUDY    70  66  88 S15       29.92S
CRESTON *      PTSUNNY   66  63  88 S20       29.99F
HARLAN  *      PTSUNNY   66  64  94 S16G23    29.96F
LAMONI         CLOUDY    64  61  90 S12       30.03S
RED OAK *      CLOUDY    66  63  88 S15       29.96S
SHENANDOAH *   CLOUDY    68  63  83 S15       29.97F HAZE
$$

IAZ047>049-059>061-072>074-084-191700-
   CENTRAL IOWA

CITY           SKY/WX    TMP DP  RH WIND       PRES   REMARKS
AMES           MOSUNNY   69  61  75 S17G26    29.96F
ANKENY *       MOSUNNY   70  63  78 S16G23    29.98F
CHARITON *     MOSUNNY   70  61  73 S18       30.02S
DES MOINES     PTSUNNY   70  61  73 S16G28    29.99S
GRINNELL*      SUNNY     68  59  73 S15G21    30.03F
KNOXVILLE *    SUNNY     68  61  77 S20G26    30.00F
MARSHALLTOWN   MOSUNNY   68  58  70 S16       29.99F
PELLA *        MOSUNNY   72  61  68 S16       30.03S
PERRY *          N/A     70  61  73 S18G24    29.95F
$$

IAZ004>006-015-016-023>025-035-036-191700-
   NORTH CENTRAL IOWA

CITY           SKY/WX    TMP DP  RH WIND       PRES   REMARKS
ALGONA *       SUNNY     70  61  73 S20G30    29.87F
CLARION *        N/A     68  59  73 S23G31    29.92F
ESTHERVILLE    CLOUDY    63  59  87 S22G31    29.83F
FORT DODGE *   MOSUNNY   72  61  68 S17G26    29.91F
MASON CITY     PTSUNNY   68  58  70 S20G28    29.93F
FOREST CITY *  SUNNY     68  59  73 S21G29    29.90F
IOWA FALLS *     N/A     68  57  68 S21G26    29.97F
$$

IAZ007>011-017>019-026>030-037>042-050>054-066-191700-
   NORTHEAST IOWA

CITY           SKY/WX    TMP DP  RH WIND       PRES   REMARKS
CEDAR RAPIDS   SUNNY     67  56  67 S16G22    30.05S
CHARLES CITY * SUNNY     68  55  64 S17G25    29.97F
CLINTON *      SUNNY     66  54  63 S15       30.12F
DECORAH *      SUNNY     66  55  68 S16G24    29.98F
DUBUQUE        SUNNY     65  55  70 S15       30.07F
MONTICELLO *   SUNNY     68  55  64 S14G21    30.06F
OELWEIN *      SUNNY     68  55  64 S20G25    30.02F
WATERLOO       SUNNY     68  55  63 S16G25    30.00F
$$

IAZ064-065-067-068-078-191700-
   EAST CENTRAL IOWA

CITY           SKY/WX    TMP DP  RH WIND       PRES   REMARKS
DAVENPORT      SUNNY     69  53  56 S15       30.09F
IOWA CITY      SUNNY     67  57  70 S10       30.08S
MT. PLEASANT * SUNNY     72  52  49 S9G18     30.08F
MUSCATINE *    SUNNY     68  54  60 S14G20    30.08F
QUAD CITIES    SUNNY     69  54  58 S13G20    30.09F
$$

IAZ062-063-075>077-085>089-095>099-191700-
   SOUTHEAST IOWA

CITY           SKY/WX    TMP DP  RH WIND       PRES   REMARKS
BURLINGTON     LGT RAIN  69  56  62 S12       30.09F
FAIRFIELD *    SUNNY     70  55  60 S15G21    30.06F
FORT MADISON * SUNNY     72  55  56 S7        30.09F
KEOKUK *       SUNNY     70  57  64 SE10      30.08F
OSKALOOSA *      N/A     68  59  73 S15       30.05F
CENTERVILLE *  SUNNY     68  61  77 S12G21    30.06S
OTTUMWA        SUNNY     69  56  62 S16G22    30.04F
WASHINGTON *   SUNNY     70  57  64 S14       30.07F
$$

ABBREVIATIONS USED IN REMARKS
   TC - TEMPERATURES IN CELSIUS
  WCI - WIND CHILL INDEX
   HX - HEAT INDEX
  VSB - VISIBILITY
$$




USA.gov is the U.S. government's official web portal to all federal, state and local government web resources and services.